Regional Weather Roundup
Issued by NWS

Home | Current Version | Previous Version | Graphics & Text | Print | Product List | Glossary On
Versions: 1 2 3 4 5 6 7 8 9 10 11 12 13 14 15 16 17 18 19 20 21 22 23 24 25 26 27 28 29 30 31 32 33 34 35 36 37 38 39 40 41 42 43 44 45 46 47 48 49 50
000
ASUS45 KTFX 221404
RWRMT
MONTANA HOURLY WEATHER ROUNDUP
NATIONAL WEATHER SERVICE GREAT FALLS MT
704 AM MST MON DEC 22 2014

NOTE: "FAIR" INDICATES FEW OR NO CLOUDS BELOW 12000 FEET WITH NO
SIGNIFICANT WEATHER AND/OR OBSTRUCTIONS TO VISIBILITY.

* THESE STATIONS ARE NOT UNDER NWS QUALITY CONTROL. THEY DO NOT
   REPORT WEATHER SUCH AS PRECIPITATION OR FOG.

MTZ001>007-043-221500-
WEST OF THE DIVIDE
CITY           SKY/WX    TMP DP  RH WIND       PRES   REMARKS
KALISPELL      MOCLDY    32  28  85 SE3       29.89R
MISSOULA       CLOUDY    34  30  85 W6        29.96R WCI  29
BUTTE          LGT SNOW  28  25  89 NW13G21   29.89R VSB 1 1/2 WCI  17
MULLAN PASS    FOG       25  25 100 VRB3      29.91R VSB 1 3/4
* ESSEX        N/A       32  29  89 N1         N/A
* LINCOLN      N/A       30  27  89 SW5G12     N/A   WCI  25
* LOOKOUT PASS N/A       30  27  89 NE6        N/A   WCI  24
* POLSON       N/A       35  25  67 E1G6       N/A
* RONAN APT    CLOUDY    37  28  70 N/A        N/A
* SEELEY LAKE  N/A       30  27  89 NE1G7      N/A
* THOMP F APT  MOCLDY    27  23  85 E4G11      N/A
* YAAK HILL    N/A       32  29  89 NE1        N/A
$$

MTZ008-052>055-221500-
SOUTHWEST MONTANA
CITY           SKY/WX    TMP DP  RH WIND       PRES   REMARKS
BOZEMAN        MOCLDY    30  25  82 N7        29.86S WCI  23
DILLON         CLOUDY    30  19  64 SW3       29.89R
* W YELLOWSTON CLOUDY    25  21  85 SW3G11     N/A
* THREE FORKS  PTCLDY    36  36 100 SW11G17    N/A   WCI  28
* BOULDER HILL N/A       31  14  49 NE4G17     N/A
* MONIDA PASS  N/A       25  17  72 NW13G18    N/A   WCI  13
* RAYNOLDS PAS N/A       25  24  96 N7         N/A   WCI  17
* WHITEHALL    N/A       33  28  82 SW9G19     N/A   WCI  25
* WISE RIVER   N/A       28  17  63 W10        N/A   WCI  19
$$

MTZ009>010-012-014-046-048-049-054-221500-
EAST SLOPES AND CENTRAL MONTANA
CITY           SKY/WX    TMP DP  RH WIND       PRES   REMARKS
CUT BANK       PTCLDY    30  23  75 W15       29.75R WCI  19
GREAT FALLS    CLOUDY    34  28  79 SW10      29.78R WCI  26
HELENA         PTCLDY    37  21  52 W24G36    29.82R WCI  26
MALMSTROM AFB  CLOUDY    36  28  73 W14       29.80R WCI  27
* DEARBORN     N/A       29  25  85 SW2        N/A
* EAST GLACIER N/A       30  22  72 N8         N/A   WCI  22
* MONARCH      N/A       29  23  78 W14G23     N/A   WCI  18
* PENDROY      N/A       29  20  69 W11        N/A   WCI  19
* ROGERS PASS  N/A       27  23  85 SE9G18     N/A   WCI  18
* SWEET GRASS  N/A       29  18  63 NW16G22    N/A   WCI  17
$$

MTZ011-013-016-021-035-040-045-047-050-051-221500-
NORTH CENTRAL MONTANA
CITY           SKY/WX    TMP DP  RH WIND       PRES   REMARKS
HAVRE          MOCLDY    28  25  89 SW13      29.75R WCI  17
LEWISTOWN      CLOUDY    34  21  59 NW13      29.75R WCI  25
* N BAR RANCH  MOCLDY    30  21  69 NW16      29.72R WCI  19
* CHESTER      N/A       32  20  61 NW9G16     N/A   WCI  24
* DENTON       N/A       33  22  64 W8         N/A   WCI  26
* GEYSER       N/A       33  26  75 W14G23     N/A   WCI  23
* JUDITH GAP   N/A       32  22  67 NW19G24    N/A   WCI  20
* LOMA         N/A       29  22  75 SW6        N/A   WCI  23
$$

MTZ017>020-022>027-061-062-221500-
NORTHEAST MONTANA
CITY           SKY/WX    TMP DP  RH WIND       PRES   REMARKS
GLASGOW        CLOUDY    32  27  82 NW14      29.62R WCI  22
GLENDIVE       CLOUDY    30  27  89 NW18G23   29.58R WCI  18
JORDAN         PTCLDY    32  27  82 NW12      29.65R WCI  23
SIDNEY         CLOUDY    27  23  85 W21       29.57S VSB 1 1/4 WCI  13
WOLF POINT     LGT SNOW  28  27  96 NW13      29.62R VSB 3/4  WCI  17
* BEAVER HILL  N/A       29  26  89 NW29G34    N/A   WCI  14
* CIRCLE       N/A       33  30  89 NW9G18     N/A   WCI  25
* LINDSAY DVD  N/A       29  27  92 NW29G42    N/A   WCI  14
* SACO         N/A       32  28  85 W9G16      N/A   WCI  24
$$

MTZ028>042-056>058-221500-
SOUTHCENTRAL AND SOUTHEAST MONTANA
CITY           SKY/WX    TMP DP  RH WIND       PRES   REMARKS
BAKER          CLOUDY    34 N/A N/A NW23G33   29.54R WCI  22
BILLINGS       PTCLDY    34  25  70 NW13      29.76R WCI  25
LIVINGSTON     MOCLDY    34  21  59 W12       29.81R WCI  25
MILES CITY     PTCLDY    34  27  76 NW17      29.62R WCI  23
* LAUREL APT   MOCLDY    37  19  48 W14G22     N/A   WCI  28
* ROUNDUP APT  PTCLDY    28  18  66 SW6        N/A   WCI  21
* ALZADA       N/A       35  26  70 W16G22     N/A   WCI  25
* HYSHAM       N/A       30  19  64 W4         N/A
* LAME DEER    N/A       32  21  64 W14G19     N/A   WCI  22
* REED POINT   N/A       36  30  79 W12G19     N/A   WCI  28
* ROSCOE HILL  N/A       30  22  72 W8G19      N/A   WCI  22
$$

REGIONAL REPORTS...DAKOTAS
CITY           SKY/WX    TMP DP  RH WIND       PRES   REMARKS
WILLISTON      CLOUDY    28  23  81 NW20      29.53R WCI  15
DICKINSON      LGT SNOW  28  25  89 NW21G30   29.46R VSB 2 1/2 WCI  14
BEACH          LGT SNOW  28  28 100 NW22G31   29.53R VSB 2 1/2 WCI  14
CROSBY         FOG       28  28 100 N9        29.53R VSB M1/4 WCI  19
WATFORD CITY   LGT SNOW  27  25  92 NW14G20   29.50R WCI  16
BISMARCK       FOG       28  28 100 CALM      29.47R VSB 1/2
GRAND FORKS    FOG       36  34  92 E10       29.53S WCI  29
FARGO          FOG       37  36  96 SE8       29.50R WCI  31
BUFFALO SD     MOCLDY    36  28  73 NW28G36   29.45S WCI  23
RAPID CITY     MOCLDY    39  21  48 NW24G39   29.55R WCI  28
$$

REGIONAL REPORTS...WYOMING/IDAHO/WASHINGTON
CITY           SKY/WX    TMP DP  RH WIND       PRES   REMARKS
GILLETTE       CLOUDY    32  21  64 NW17      29.66S WCI  21
SHERIDAN       CLOUDY    34  23  64 NW16      29.71R WCI  24
CODY           CLOUDY    32  27  82 CALM      29.76R
YELLOWSTONE LA CLOUDY    21  18  88 VRB3      29.82R
SALMON         MOCLDY    30  27  89 CALM      29.96R
MULLAN PASS    FOG       25  25 100 VRB3      29.91S VSB 1 3/4
SAND POINT     PTCLDY    34  34 100 S5        29.98R WCI  29
SPOKANE        CLEAR     34  28  79 S7        30.02R WCI  28

$$




USA.gov is the U.S. government's official web portal to all federal, state and local government web resources and services.